Temperature
4 4 4 4 4 5 5 5 5 6 6 6 6 7 7 7 7 7 8 8 8 8 8 8 8 8 8 8 8 8 8 8 8 8 8 8 8 8 9 9 9 9 9
3 3 3 4 4 4 4 5 5 5 5 6 6 6 6 6 6 7 7 7 7 7 8 8 8 8 8 8 8 8 8 8 8 8 7 7 7 8 8 8 8 8 8
3 3 3 3 3 3 4 4 4 5 5 5 5 5 5 6 6 6 6 6 7 7 7 7 7 7 7 7 7 7 7 7 7 7 7 7 7 7 7 7 8 8 8
2 2 2 2 2 3 3 3 4 4 4 5 5 5 5 5 5 5 6 6 6 6 7 7 7 7 7 7 7 7 7 7 7 7 7 7 7 7 6 7 7 7 7
1 1 1 1 2 2 2 3 3 3 4 4 4 4 4 5 5 5 5 5 6 6 6 6 6 6 6 6 6 6 6 6 6 6 6 7 7 7 6 6 6 6 7
1 1 1 1 1 1 2 2 2 2 3 3 3 4 4 4 4 4 5 5 5 5 5 6 6 6 6 6 6 6 6 6 6 6 6 6 6 6 6 6 6 6 6
0 0 0 0 0 1 1 1 2 2 2 2 3 3 4 4 4 4 4 4 5 5 5 5 5 6 6 5 5 5 6 5 5 6 6 6 6 6 6 6 6 5 6
-0 -0 -0 -0 -0 0 0 1 1 1 1 2 2 2 3 3 3 4 4 4 4 4 5 5 5 5 5 5 5 5 5 5 5 5 5 5 5 5 5 5 5 5 5
-1 -1 -0 -0 -0 -0 -0 0 0 0 1 1 1 1 2 2 3 3 3 3 4 4 4 4 4 4 4 4 4 4 5 4 5 5 5 5 5 5 5 5 5 5 5
-1 -1 -1 -1 -1 -1 -0 -0 -0 -0 0 1 1 1 1 2 2 2 2 3 3 3 3 4 4 4 4 4 4 4 4 4 4 4 4 4 4 4 4 4 5 5 5
-1 -1 -1 -1 -1 -1 -1 -1 -1 -1 -0 -0 0 0 1 1 1 1 2 2 2 3 3 3 3 3 3 3 3 3 3 3 3 3 3 4 4 4 4 4 4 4 4
-2 -2 -2 -2 -1 -1 -1 -1 -1 -1 -1 -1 -0 -0 0 0 1 1 1 1 2 2 2 2 2 2 2 2 2 2 3 3 3 3 3 3 3 3 3 3 3 3 3
-2 -2 -2 -2 -2 -2 -2 -2 -2 -2 -1 -1 -1 -1 -0 -0 0 0 1 1 1 1 2 2 1 1 2 2 2 2 2 2 2 2 2 2 2 3 3 3 3 3 3
-2 -2 -2 -2 -2 -2 -2 -2 -2 -2 -2 -2 -1 -1 -1 -1 -0 -0 0 0 1 1 1 1 1 1 1 1 1 1 1 1 1 1 1 2 2 2 2 2 2 2 2
-3 -3 -3 -3 -3 -2 -2 -2 -2 -2 -2 -2 -2 -1 -1 -1 -1 -1 -1 -0 -0 0 0 0 0 1 1 1 1 0 0 1 1 1 1 1 1 1 1 1 1 2 2
-3 -3 -3 -3 -3 -3 -3 -3 -3 -3 -3 -2 -2 -2 -2 -2 -2 -1 -1 -1 -1 -1 -0 -0 -0 -0 -0 0 0 0 -0 -0 -0 0 0 0 0 1 1 1 1 1 1
-4 -4 -4 -4 -3 -3 -3 -3 -3 -3 -3 -3 -3 -2 -2 -2 -2 -2 -2 -2 -1 -1 -1 -1 -1 -1 -1 -1 -1 -1 -1 -1 -0 -0 -0 -0 -0 -0 -0 0 0 0 1
-4 -4 -4 -4 -4 -4 -4 -4 -4 -3 -3 -3 -3 -3 -3 -3 -2 -2 -2 -2 -2 -2 -2 -1 -1 -1 -1 -1 -1 -1 -1 -1 -1 -1 -1 -1 -1 -1 -1 -1 -0 -0 -0
-4 -4 -4 -4 -4 -4 -4 -4 -4 -4 -4 -4 -4 -3 -3 -3 -3 -3 -2 -2 -2 -2 -2 -2 -2 -2 -2 -2 -2 -2 -2 -2 -2 -1 -1 -1 -1 -1 -1 -1 -1 -1 -1
-5 -5 -5 -5 -5 -5 -5 -5 -5 -5 -5 -5 -4 -4 -4 -4 -3 -3 -3 -3 -3 -3 -3 -2 -2 -2 -2 -2 -2 -2 -2 -2 -2 -2 -2 -2 -2 -1 -1 -1 -1 -1 -1
-5 -5 -5 -5 -5 -5 -5 -5 -5 -5 -5 -5 -5 -5 -4 -4 -4 -4 -4 -3 -3 -3 -3 -3 -3 -3 -3 -3 -3 -3 -3 -3 -2 -2 -2 -2 -2 -2 -2 -2 -2 -2 -1
-5 -6 -5 -6 -6 -6 -6 -6 -6 -6 -6 -6 -5 -5 -5 -5 -5 -4 -4 -4 -4 -4 -4 -4 -3 -3 -3 -3 -3 -3 -3 -3 -3 -3 -3 -3 -3 -3 -3 -2 -2 -2 -2
-6 -6 -6 -6 -6 -6 -6 -6 -6 -6 -6 -6 -6 -6 -6 -5 -5 -5 -5 -5 -5 -5 -4 -4 -4 -4 -4 -4 -4 -4 -4 -3 -3 -3 -3 -3 -3 -3 -3 -3 -3 -3 -3
-6 -6 -6 -6 -6 -6 -7 -7 -7 -7 -6 -6 -6 -6 -6 -6 -6 -5 -5 -5 -5 -5 -5 -5 -5 -5 -4 -4 -4 -4 -4 -4 -4 -4 -4 -4 -4 -3 -3 -3 -3 -3 -3
-7 -7 -7 -7 -7 -7 -7 -7 -7 -7 -7 -7 -7 -7 -7 -6 -6 -6 -6 -6 -6 -6 -6 -5 -5 -5 -5 -5 -5 -5 -5 -4 -4 -4 -4 -4 -4 -4 -4 -4 -4 -4 -4
-7 -7 -7 -7 -7 -7 -8 -8 -7 -7 -7 -7 -7 -7 -7 -7 -7 -6 -6 -6 -6 -6 -6 -6 -6 -6 -5 -5 -5 -5 -5 -5 -5 -5 -5 -5 -5 -5 -5 -5 -5 -5 -4
Wind_Speed
1 2 1 2 2 3 3 2 3 2 1 1 1 1 1 2 2 3 4 4 3 3 3 3 3 3 2 3 3 3 3 2 3 3 2 2 1 1 2 3 3 3 4
2 3 3 2 2 2 2 2 2 2 1 1 1 1 1 1 1 2 3 3 3 3 3 3 2 2 3 3 3 3 2 2 2 2 2 1 1 1 1 1 2 2 3
1 2 3 3 2 1 2 2 2 2 2 1 1 1 2 1 1 1 1 2 2 2 3 3 3 3 3 3 3 3 2 3 1 1 1 2 2 1 1 1 1 1 1
2 3 3 4 3 3 3 2 2 2 2 1 1 3 2 2 1 1 1 1 2 2 2 3 2 2 2 3 2 2 1 3 3 1 0 1 1 2 1 1 1 1 1
3 3 4 3 3 3 3 3 3 2 2 1 1 2 2 1 0 1 2 1 1 2 2 2 2 2 2 2 2 2 2 1 2 2 0 0 0 0 2 2 1 1 1
3 4 4 4 4 4 4 4 4 3 2 1 1 2 2 1 1 1 1 1 1 1 2 1 1 2 2 2 2 2 2 1 1 1 1 1 1 1 1 1 2 2 1
3 3 3 4 4 4 4 4 4 4 3 2 1 1 2 2 2 1 1 1 1 0 0 1 1 1 1 1 1 2 2 2 1 1 1 1 1 1 1 1 1 1 1
3 3 3 3 3 4 4 4 4 3 3 3 2 1 0 1 1 1 1 2 2 1 1 0 0 1 1 1 2 2 1 1 1 1 1 1 1 1 1 2 2 1 1
3 3 3 3 3 3 3 3 3 3 3 3 2 1 1 0 0 1 1 1 1 1 0 1 1 1 1 2 2 2 2 2 2 2 2 1 1 1 1 1 2 3 3
3 4 3 3 3 3 2 2 2 2 2 3 3 2 1 1 0 1 1 1 1 1 1 2 2 1 1 2 2 2 2 2 2 1 1 1 1 1 1 1 1 1 2
3 3 3 3 2 2 2 2 3 2 2 2 2 2 2 1 1 1 1 2 2 1 2 2 2 2 2 2 3 3 3 3 2 2 2 2 2 2 1 1 1 1 1
3 3 3 3 3 3 3 3 2 2 2 1 1 2 1 1 1 1 1 2 2 2 2 2 2 2 2 2 3 4 3 4 4 3 2 2 2 2 2 2 2 2 2
4 3 3 3 3 3 3 3 2 2 1 1 1 2 1 1 1 1 1 1 2 1 1 2 2 2 2 2 3 3 4 4 4 4 4 3 3 3 2 3 3 2 2
4 4 4 4 4 3 2 2 2 2 2 1 1 2 2 2 2 1 1 1 1 1 2 2 2 2 2 3 3 2 3 3 3 3 3 3 3 4 3 3 3 3 2
5 5 5 5 4 4 3 2 3 2 2 1 1 2 2 2 1 1 1 1 1 1 2 2 2 2 2 3 3 3 3 4 3 3 3 3 3 4 3 3 3 3 2
5 5 5 5 5 5 4 4 3 3 2 2 2 2 2 2 1 1 1 1 1 1 2 2 2 2 2 3 4 3 3 3 4 4 4 4 3 4 4 4 4 4 4
5 6 6 5 5 5 5 4 3 3 2 2 2 2 2 2 1 1 1 1 1 1 2 2 2 2 3 4 4 4 3 3 4 5 4 4 4 4 3 4 4 4 4
5 5 5 6 6 5 5 4 4 3 2 2 2 2 2 2 2 1 1 1 1 1 1 1 2 2 3 4 4 4 3 3 3 4 4 4 4 5 4 4 4 3 3
4 4 4 5 5 6 5 3 4 3 3 3 2 2 2 2 2 2 2 2 2 2 2 2 2 2 3 4 4 4 3 3 4 4 4 4 4 6 6 5 5 4 4
4 4 5 5 5 5 5 3 3 3 4 4 3 3 2 2 2 2 2 2 2 2 2 3 2 3 3 4 5 5 3 3 3 3 3 5 6 6 6 5 5 6 5
5 5 4 4 4 4 4 3 3 4 4 3 3 3 2 2 2 2 2 2 2 2 2 3 3 3 4 5 6 6 3 3 3 3 3 3 6 7 7 6 5 6 5
5 5 4 5 5 4 3 4 4 4 4 3 3 3 3 3 3 2 2 2 2 2 2 2 3 2 3 4 5 6 6 5 4 4 3 4 6 6 7 5 6 6 4
5 4 4 5 5 4 3 4 5 4 3 3 3 3 3 3 2 2 2 2 2 2 2 2 2 3 2 3 5 6 6 6 4 4 5 6 6 6 5 5 6 4 3
4 4 4 5 6 5 4 4 4 3 3 3 4 3 3 3 2 2 2 2 2 2 2 2 3 3 3 3 3 3 3 4 3 2 3 4 4 3 3 3 2 2 2
5 4 4 5 6 5 5 4 4 3 3 3 4 3 3 2 2 2 2 2 2 3 3 3 3 3 3 4 5 4 3 2 2 1 0 1 1 1 1 1 1 2 2
5 5 5 5 5 5 5 4 3 3 3 3 3 3 2 2 2 2 2 3 3 4 4 4 4 3 4 5 5 5 5 4 2 0 1 1 1 2 1 1 1 1 2
Wind_Direction
15 41 47 32 23 17 13 4 9 354 32 94 99 120 130 115 89 74 91 91 92 108 107 91 101 103 118 122 117 115 118 112 116 104 86 45 53 97 108 109 109 110 113
28 27 27 48 56 27 3 2 9 353 302 198 156 164 147 153 120 75 82 91 87 105 124 106 113 116 123 119 116 116 118 121 118 123 121 107 16 10 80 98 109 122 120
29 21 24 23 27 21 360 358 0 2 340 343 85 107 107 107 96 102 107 76 93 95 127 127 125 126 128 138 141 131 124 155 167 117 127 152 190 187 239 179 136 115 92
46 34 27 20 16 9 9 7 3 3 351 31 133 148 137 142 190 184 144 71 82 83 120 123 127 136 133 143 154 126 132 154 170 190 312 164 145 156 172 231 198 148 127
55 39 32 28 23 22 15 3 359 352 351 351 177 149 130 138 117 134 122 118 68 63 87 123 126 139 138 145 150 145 148 167 175 172 183 47 21 172 169 206 223 245 230
48 37 30 27 26 30 19 7 1 346 358 1 114 134 140 135 126 102 129 121 134 56 31 86 112 138 138 147 166 158 164 173 190 170 157 159 176 228 193 194 209 230 245
38 26 15 19 21 24 16 8 358 1 359 8 33 113 144 154 163 172 163 151 168 164 193 39 101 114 112 134 148 142 172 180 192 192 198 201 233 220 193 168 205 249 272
14 9 3 16 12 11 9 10 355 354 359 2 4 359 353 160 168 174 177 183 202 197 228 153 99 130 151 163 147 142 168 161 175 215 199 196 236 226 195 190 178 212 266
355 354 356 3 3 3 1 2 354 355 1 3 3 345 336 43 178 157 160 184 198 219 239 153 143 167 187 174 160 171 179 174 189 204 205 200 217 226 236 196 184 187 221
344 343 349 350 352 352 348 358 3 351 350 356 354 355 344 353 290 185 206 214 209 210 183 167 170 176 187 184 166 179 180 182 202 207 201 216 216 208 227 223 223 203 211
334 337 332 327 332 341 346 359 0 357 354 358 349 354 342 325 303 254 239 234 217 181 180 179 180 183 192 194 190 192 191 195 201 215 213 229 220 207 215 225 223 223 220
330 323 321 324 330 344 352 356 352 344 334 335 330 319 315 315 298 303 281 265 231 209 194 180 191 200 206 208 205 204 206 204 204 210 216 233 231 217 217 214 219 229 229
329 329 331 338 334 339 342 338 334 331 327 333 321 315 313 296 288 294 285 266 238 210 184 164 197 204 204 217 220 212 208 209 210 212 217 225 227 235 232 226 224 236 244
328 333 335 335 335 330 329 327 324 326 331 329 314 302 294 288 267 266 270 255 233 209 194 187 199 208 215 217 218 225 220 213 216 217 222 223 223 232 226 228 229 232 239
331 333 334 333 336 333 329 327 322 321 323 319 315 303 301 300 293 280 271 263 270 248 207 197 209 213 221 221 217 216 224 215 217 222 228 229 225 237 236 235 231 227 233
324 333 335 336 334 331 328 325 323 323 327 314 307 311 313 307 291 268 262 273 272 239 209 210 212 232 249 257 259 247 232 230 222 225 232 235 231 237 242 241 237 227 224
334 337 335 329 327 328 328 323 316 323 326 321 326 325 319 315 312 318 327 299 290 269 234 227 219 228 248 267 265 266 256 240 236 230 228 236 232 231 230 239 241 246 244
332 334 337 337 336 333 331 330 333 332 317 317 320 321 326 327 329 334 320 313 310 279 273 265 247 245 259 269 266 266 255 250 244 238 229 228 229 229 225 225 226 235 248
330 330 329 326 329 331 330 332 331 333 324 315 309 316 323 315 320 320 314 321 323 307 292 286 271 265 274 273 271 268 247 246 248 240 228 221 227 238 239 227 219 226 242
339 335 335 337 337 332 335 334 325 328 321 318 318 322 317 305 305 306 313 317 309 296 297 298 293 277 272 271 271 269 244 247 252 250 230 230 232 233 242 232 219 223 231
339 338 336 331 321 322 332 327 320 309 304 314 322 323 318 305 297 304 311 310 309 309 303 298 294 284 281 273 269 267 257 244 246 248 246 239 244 240 245 247 229 230 227
336 335 334 325 321 324 329 320 310 305 313 320 320 317 317 307 311 314 311 307 299 293 293 295 299 293 288 287 277 271 270 267 256 251 246 241 247 250 252 253 239 234 230
326 330 327 322 323 324 317 305 304 314 320 319 312 311 314 310 309 303 301 300 291 278 285 287 292 300 308 301 292 289 287 282 275 253 250 252 250 252 251 251 241 233 218
323 326 324 321 320 322 319 302 306 316 317 309 307 307 307 310 313 307 298 289 275 271 281 284 286 292 299 304 307 303 298 295 287 271 256 252 247 245 246 245 234 218 202
325 325 320 314 311 316 319 317 316 313 309 304 303 307 308 305 308 302 290 284 280 269 269 270 269 273 283 294 304 306 301 292 270 256 243 226 224 200 196 210 205 195 191
320 321 320 321 321 322 319 320 321 316 304 305 308 305 304 302 301 300 313 313 296 309 306 300 294 294 297 306 312 316 319 316 304 275 193 212 216 216 215 219 232 213 200
Height
1502 1502 1503 1503 1503 1504 1505 1505 1506 1507 1508 1509 1510 1511 1513 1515 1517 1519 1521 1524 1526 1528 1530 1532 1534 1537 1539 1541 1543 1544 1546 1547 1549 1550 1551 1554 1555 1557 1558 1559 1560 1561 1562
1501 1501 1501 1501 1502 1502 1503 1503 1504 1505 1506 1507 1508 1509 1511 1513 1515 1517 1519 1521 1524 1526 1528 1530 1532 1535 1537 1539 1540 1542 1543 1545 1547 1548 1550 1551 1554 1554 1556 1557 1558 1559 1560
1499 1500 1500 1500 1500 1500 1501 1501 1502 1502 1504 1506 1506 1508 1510 1511 1513 1515 1517 1519 1522 1524 1526 1528 1530 1532 1534 1536 1538 1540 1541 1543 1545 1546 1548 1549 1550 1551 1553 1554 1555 1556 1557
1499 1499 1499 1499 1499 1499 1499 1499 1500 1501 1502 1503 1504 1506 1506 1508 1510 1513 1515 1518 1520 1522 1523 1526 1528 1530 1532 1534 1536 1537 1539 1541 1542 1544 1546 1547 1547 1548 1549 1551 1552 1553 1554
1498 1498 1498 1498 1497 1497 1498 1497 1498 1499 1500 1501 1501 1503 1504 1506 1509 1510 1512 1515 1517 1519 1521 1523 1525 1527 1530 1532 1534 1535 1537 1538 1539 1540 1542 1544 1545 1546 1546 1547 1548 1550 1551
1497 1497 1497 1497 1497 1496 1496 1496 1496 1497 1498 1498 1499 1500 1502 1504 1506 1508 1509 1512 1514 1516 1518 1521 1522 1524 1527 1529 1531 1532 1534 1536 1537 1538 1540 1541 1542 1543 1544 1544 1545 1546 1547
1497 1496 1496 1496 1495 1495 1495 1495 1495 1494 1495 1496 1496 1498 1500 1502 1503 1505 1507 1509 1511 1513 1515 1517 1519 1521 1523 1526 1528 1529 1531 1532 1534 1535 1537 1538 1539 1541 1541 1542 1542 1543 1544
1496 1496 1495 1495 1494 1494 1494 1493 1493 1493 1493 1493 1494 1496 1497 1499 1501 1503 1504 1506 1508 1510 1512 1514 1516 1518 1520 1522 1524 1526 1528 1529 1531 1532 1534 1535 1536 1537 1538 1539 1539 1540 1541
1497 1496 1495 1495 1494 1493 1492 1492 1491 1491 1491 1492 1493 1494 1495 1496 1498 1500 1502 1504 1505 1507 1509 1510 1512 1514 1517 1519 1520 1522 1524 1525 1527 1529 1530 1531 1532 1534 1534 1535 1537 1538 1537
1496 1495 1494 1494 1493 1492 1491 1490 1490 1490 1489 1490 1491 1491 1492 1493 1495 1497 1499 1501 1503 1504 1506 1507 1509 1511 1513 1515 1517 1518 1520 1522 1523 1524 1526 1527 1528 1530 1530 1531 1532 1533 1534
1495 1494 1494 1493 1492 1491 1490 1489 1488 1488 1488 1488 1489 1490 1491 1492 1493 1494 1496 1498 1499 1500 1502 1504 1505 1507 1509 1511 1513 1514 1516 1517 1519 1520 1522 1523 1524 1525 1526 1527 1528 1529 1530
1495 1494 1493 1492 1490 1489 1488 1487 1487 1487 1487 1487 1487 1488 1488 1489 1490 1491 1493 1494 1496 1498 1499 1500 1502 1504 1506 1508 1509 1509 1511 1513 1514 1516 1517 1518 1520 1521 1522 1523 1524 1525 1526
1494 1493 1492 1490 1489 1487 1487 1486 1486 1485 1485 1485 1485 1485 1486 1486 1487 1488 1490 1491 1493 1494 1495 1496 1498 1500 1501 1503 1504 1506 1507 1508 1510 1511 1513 1514 1515 1516 1517 1518 1519 1520 1521
1493 1492 1490 1488 1487 1486 1485 1484 1484 1484 1483 1483 1483 1483 1483 1484 1485 1486 1487 1488 1490 1490 1491 1492 1494 1496 1498 1499 1500 1501 1502 1504 1505 1506 1508 1509 1510 1511 1512 1513 1514 1515 1516
1492 1491 1489 1487 1486 1485 1483 1482 1482 1482 1481 1481 1481 1481 1481 1482 1483 1483 1485 1486 1487 1488 1488 1489 1491 1492 1494 1495 1496 1497 1498 1499 1500 1502 1503 1504 1506 1507 1508 1509 1509 1510 1511
1491 1490 1488 1486 1485 1483 1482 1481 1480 1479 1479 1478 1478 1478 1479 1479 1480 1481 1482 1483 1483 1484 1485 1486 1487 1488 1489 1491 1492 1493 1494 1495 1496 1497 1498 1499 1501 1502 1503 1504 1505 1506 1507
1490 1489 1487 1485 1483 1482 1481 1480 1479 1478 1477 1476 1476 1476 1476 1477 1477 1478 1479 1479 1480 1481 1482 1483 1484 1485 1486 1487 1488 1489 1490 1491 1492 1493 1494 1494 1495 1497 1498 1499 1500 1500 1501
1489 1487 1485 1484 1482 1480 1479 1478 1477 1476 1475 1474 1474 1474 1474 1474 1474 1475 1475 1476 1477 1478 1478 1479 1480 1481 1482 1483 1484 1485 1486 1486 1487 1488 1489 1490 1491 1492 1493 1494 1494 1495 1496
1488 1486 1484 1482 1480 1478 1477 1476 1475 1474 1473 1472 1471 1471 1471 1471 1471 1472 1473 1473 1474 1475 1475 1476 1477 1477 1478 1479 1480 1481 1481 1482 1482 1483 1484 1485 1486 1487 1488 1489 1489 1489 1490
1487 1485 1483 1481 1479 1477 1475 1474 1472 1471 1470 1470 1469 1469 1469 1469 1469 1469 1470 1471 1471 1472 1472 1473 1473 1474 1475 1475 1476 1477 1477 1477 1477 1478 1479 1480 1481 1482 1483 1484 1484 1484 1485
1485 1483 1481 1479 1477 1476 1474 1472 1470 1469 1469 1468 1467 1467 1467 1467 1466 1467 1467 1468 1469 1469 1469 1469 1470 1471 1471 1471 1472 1473 1473 1473 1473 1473 1474 1475 1476 1477 1478 1479 1479 1479 1480
1483 1481 1479 1477 1475 1474 1472 1469 1468 1467 1466 1465 1465 1464 1464 1464 1464 1464 1464 1465 1466 1466 1466 1466 1466 1467 1468 1468 1468 1469 1469 1469 1469 1469 1469 1470 1471 1472 1473 1473 1474 1475 1475
1482 1480 1477 1475 1473 1471 1470 1468 1466 1465 1464 1463 1462 1462 1462 1462 1462 1461 1461 1462 1463 1463 1463 1463 1463 1463 1464 1464 1464 1464 1464 1464 1464 1464 1464 1465 1466 1467 1468 1468 1469 1470 1470
1479 1477 1475 1472 1470 1469 1467 1466 1464 1463 1462 1461 1460 1460 1459 1459 1459 1459 1459 1459 1460 1459 1460 1460 1460 1460 1460 1460 1460 1460 1460 1460 1460 1460 1460 1461 1461 1462 1463 1463 1464 1464 1465
1477 1475 1472 1470 1468 1466 1465 1463 1462 1461 1460 1459 1458 1457 1457 1457 1456 1456 1457 1457 1457 1458 1458 1458 1458 1458 1457 1457 1458 1457 1457 1456 1456 1456 1456 1456 1457 1458 1459 1459 1459 1460 1461
1474 1472 1470 1468 1465 1464 1462 1461 1460 1459 1457 1456 1455 1455 1454 1454 1454 1454 1454 1454 1455 1455 1455 1456 1456 1455 1455 1455 1454 1454 1454 1453 1453 1453 1452 1452 1453 1454 1454 1455 1455 1456 1457